User: anonymous   Login
Location: Columbia
(38.9520°N, 92.3340°W)
Time: 00:21:39
(UTC-05:00)
Language:

FENGYUN 3A - Orbit

View from above orbital plane
View from above orbital plane
View from above satellite
View from above satellite

Ground track
Ground track

The orbit data is extracted from the following two-line orbital elements,

1 32958U 08026A   16269.84394572  .00000028  00000-0  32906-4 0  9993
2 32958  98.4436 305.3009 0009406 335.1799  24.8918 14.19631992431835
Epoch (UTC): 25 September 2016 20:15:16
Eccentricity: 0.0009406
inclination: 98.4436°
perigee height: 820 km
apogee height: 833 km
right ascension of ascending node: 305.3009°
argument of perigee: 335.1799°
revolutions per day: 14.19631992
mean anomaly at epoch: 24.8918°
orbit number at epoch: 43183

The dashed part of the orbit path shows where the satellite is in the earth's shadow,  

DLR